CAPE
3431 3338 3644 3970 4372 4580 4496 4697 4676 4625 4915 5105 5085 5046 4938 4811 4939 5016 4956 4889 4406 4460 4620 4518 4491 4531 3678 2992 2599 2084 1833 1999 1151 350 201 85 0 0 0 23 41 14 0
3860 4778 4219 4599 4684 4626 4734 4726 4920 5063 5088 5105 5052 4991 5012 4941 5064 5114 5067 4792 4707 4718 4772 4696 4682 3956 3789 3038 2215 1829 2112 1876 987 427 27 0 0 0 0 19 33 32 1
4203 3684 4370 4694 4908 4730 4785 4833 4853 4940 4985 4789 4919 5246 5215 5182 5174 5226 5231 5042 4905 4747 4677 4470 4312 4686 4294 3224 2470 1733 1673 1602 1298 459 51 26 0 0 0 19 34 25 0
3666 3597 3744 3445 3489 3838 4155 3943 4019 4249 4530 4798 5171 5300 5341 5307 5345 5310 5202 5142 5086 4743 4587 4256 4151 4237 3325 2725 2374 1818 1390 1977 1369 900 45 1 0 3 10 10 41 59 12
2856 2899 2809 2972 2708 2801 3007 3115 3193 3238 3580 3950 3980 4163 4432 4926 4232 4243 4973 5238 5166 4952 4682 4540 3944 3669 3350 3125 2273 2213 1888 1545 1067 724 174 0 0 0 0 9 36 37 81
2082 1668 1345 1317 1463 1382 891 1008 1858 1806 1366 1789 2137 2256 2841 2948 2766 2674 2915 3408 4318 4647 4627 4502 4658 3502 2909 2700 2463 2049 1662 2143 1432 809 140 0 1 4 28 3 14 33 54
819 686 581 374 251 590 1533 1730 1562 1706 1957 1840 1689 1907 1996 2333 1022 559 373 1142 1559 2673 3480 4185 4457 3927 3064 2622 2452 1661 1066 910 840 729 1123 535 23 8 55 79 68 33 6
611 252 261 253 64 127 210 1056 1419 1477 1669 1762 1735 1922 1878 1850 506 561 376 815 1232 1379 1919 3102 4229 4506 3724 2962 2709 1979 1220 684 631 377 578 673 253 261 88 74 50 54 27
7 45 0 0 39 140 176 485 455 312 415 797 977 1072 1392 2255 1029 564 146 1152 438 1053 1031 1983 2887 4123 4044 3121 2689 2384 1507 901 806 205 26 31 0 0 23 0 2 15 0
9 0 0 9 19 39 69 108 182 184 311 384 440 671 409 282 376 546 193 410 252 445 596 742 1727 2415 3082 2985 2802 2649 1692 996 828 398 529 103 0 0 0 16 32 2 28
14 0 0 5 24 28 100 345 276 172 28 10 28 74 180 377 495 329 188 121 454 302 242 190 592 1406 1763 3040 2722 2188 1742 1277 785 535 500 404 20 0 0 0 69 69 70
0 0 0 6 2 0 3 9 40 72 52 56 55 95 73 264 235 219 205 135 279 660 509 368 1235 856 1031 2231 2452 2000 1708 1249 803 481 555 332 3 0 0 0 17 173 115
13 14 20 21 15 14 17 12 11 12 6 0 0 0 0 0 24 2 26 73 32 248 614 351 226 170 357 1387 2101 1701 1413 1092 875 636 330 272 0 0 0 0 15 194 63
20 28 30 26 13 15 18 18 16 21 21 24 25 22 12 10 8 72 38 46 119 350 396 413 322 198 98 476 1233 1499 1071 983 829 650 196 111 1 13 0 0 0 25 31
24 19 17 11 10 0 1 0 0 0 0 0 0 1 8 0 0 0 0 0 21 27 36 19 427 635 175 98 604 926 1096 755 786 685 515 200 44 62 20 1 8 0 3
22 12 9 6 8 6 7 2 0 0 0 0 2 7 11 4 0 0 0 0 0 0 13 25 138 452 182 126 237 709 775 617 574 680 520 382 244 115 38 10 17 9 0
9 15 11 0 7 11 13 4 8 6 1 0 0 0 20 29 20 0 2 0 0 0 0 14 36 90 431 465 352 162 492 541 699 663 485 327 438 270 57 22 15 24 9
5 1 13 18 17 31 24 22 13 12 21 11 1 2 8 18 25 19 23 8 13 12 8 5 88 215 214 568 879 394 396 508 475 592 640 474 431 326 110 84 29 6 7
0 0 0 0 0 0 1 13 19 25 25 33 28 13 4 20 18 20 28 37 194 484 387 256 336 463 447 442 861 890 609 476 463 477 545 493 438 284 191 42 60 29 10
1 0 2 1 2 1 0 2 15 59 53 45 58 20 17 42 118 233 116 46 39 339 503 402 350 669 684 765 617 1085 842 570 536 585 481 513 303 282 171 157 142 18 31
0 0 2 0 4 1 0 35 21 13 14 62 63 44 27 30 37 34 77 324 615 303 440 584 607 245 595 1101 932 598 1037 739 660 321 581 541 483 709 234 158 266 26 5
2 0 0 1 1 4 1 41 50 53 55 46 31 40 11 14 46 150 322 383 583 488 227 20 612 580 746 882 1197 651 847 1060 956 744 377 289 462 511 255 268 218 86 49
25 21 0 3 4 3 0 40 70 70 51 52 49 30 35 60 64 164 320 315 310 546 645 700 706 692 656 785 863 905 912 1011 1001 947 375 456 574 520 398 365 268 392 56
56 54 35 1 0 0 4 1 0 0 0 0 0 0 0 8 20 32 191 406 252 480 860 397 428 517 493 687 705 724 1047 1101 1122 977 957 733 548 446 434 280 329 380 598
36 53 8 0 1 9 1 0 0 0 0 0 0 0 0 0 0 49 294 549 549 582 148 111 83 32 34 38 84 98 393 816 802 808 956 896 640 506 436 355 416 795 462
1 0 6 4 4 4 5 0 0 0 0 0 0 3 2 2 4 9 6 60 0 1 0 0 15 41 70 139 159 217 326 575 530 647 732 793 688 502 425 394 450 430 403
CIN
-54 -58 -44 -43 -23 -13 -6 -2 -3 -7 -8 -5 -4 -3 -3 -5 -6 -6 -8 -7 -15 -19 -16 -8 -12 -6 -18 -55 -29 -32 -21 -17 -14 -49 -56 -80 0 0 0 -16 -16 -11 0
-34 -3 -20 -14 -9 -9 -7 -3 -1 -1 -1 -1 -4 -5 -3 -3 -4 -4 -3 -4 -6 -5 -5 -11 -9 -14 -26 -36 -42 -22 -20 -10 -49 -60 -96 0 -3 0 0 -13 -16 -13 -10
-11 -10 -7 -8 -9 -12 -4 -3 -1 -1 -1 -2 -5 -4 -5 -4 -2 -3 -2 -3 -4 -4 -5 -7 -12 -14 -23 -38 -33 -33 -24 -16 -44 -109 -206 -102 0 0 0 -20 -22 -10 0
-5 -22 -17 -19 -21 -17 -13 -16 -18 -20 -15 -7 -6 -3 -4 -4 -4 -6 -5 -4 -5 -5 -8 -8 -11 -13 -12 -8 -45 -38 -69 -9 -23 -24 -150 -11 0 -13 -29 -20 -20 -12 -11
-33 -24 -20 -35 -63 -47 -46 -58 -67 -63 -47 -13 -1 -2 -17 -8 -4 -11 -14 -4 -6 -9 -8 -7 -11 -13 -7 -26 -58 -44 -29 -27 -27 -46 -85 0 0 0 0 -18 -61 -41 -33
-73 -77 -122 -167 -121 -64 -126 -112 -104 -214 -302 -272 -198 -172 -49 -15 -34 -48 -22 -58 -6 -1 -2 -5 -8 -2 -9 -12 -7 -63 -58 -12 -20 -26 -80 0 -2 -41 -43 -53 -75 -51 -11
-108 -98 -80 -77 -117 -170 -13 -71 -131 -174 -126 -147 -210 -169 -147 -109 -252 -321 -408 -318 -237 -86 -30 -4 -1 -4 -7 -12 -16 -23 -48 -102 -87 -41 -19 -34 -94 -63 -57 -22 -18 -39 -24
-134 -113 -129 -201 -316 -300 -25 -199 -158 -104 -98 -94 -115 -109 -171 -206 -348 -375 -418 -383 -269 -220 -134 -21 -6 -7 -22 -19 -1 -5 -2 -3 -2 -42 -45 -17 -56 -40 -55 -33 -20 -31 -13
-65 -197 0 -59 -282 -264 -290 -322 -345 -375 -357 -239 -206 -222 -185 -129 -275 -341 -456 -251 -377 -241 -229 -103 -28 -7 -4 -2 -1 -2 -4 -110 -6 -38 -69 -169 0 0 -21 0 -3 -23 0
-227 0 0 -144 -354 -374 -448 -472 -408 -372 -332 -293 -314 -249 -337 -411 -375 -300 -377 -332 -352 -302 -277 -219 -61 -41 -14 -9 -2 0 0 -67 -5 -6 0 -38 -3 0 0 -9 -32 -3 -20
-97 0 0 -247 -356 -384 -337 -206 -253 -159 -251 -478 -482 -447 -363 -275 -259 -298 -322 -410 -218 -226 -256 -306 -166 -87 -30 0 -2 -5 -9 -16 -9 -9 -3 -2 -19 0 0 0 -40 -27 -25
0 0 0 -383 -223 0 -310 -374 -302 -275 -317 -339 -354 -326 -367 -216 -212 -215 -201 -242 -202 -85 -100 -158 -27 -81 -62 0 0 0 0 -3 -7 -21 -5 -4 -28 0 0 0 -33 -50 -29
0 0 0 0 0 0 -1 -2 -7 -32 -3 0 0 0 0 -3 -234 -26 -177 -142 -214 -230 -82 -133 -98 -117 -84 -1 0 0 0 -1 -7 -1 -18 -14 0 0 0 0 -31 -28 -25
0 0 0 -1 -2 -8 -6 -3 -2 -1 -2 -3 -2 -4 -6 -15 -28 -122 -193 -206 -92 -17 -32 -50 -79 -99 -170 -37 -1 0 0 -1 0 -9 -48 -29 -4 -56 0 0 0 -15 -21
0 0 -1 0 -1 0 -2 0 0 0 0 0 0 -7 -7 0 0 0 0 0 -2 -2 0 -17 -24 -12 -89 -141 -19 0 0 -6 -1 -6 -16 -38 -66 -115 -144 -8 -37 0 -8
0 0 0 0 0 0 0 0 0 0 0 0 -3 -2 -3 -14 0 0 0 0 0 0 -71 -38 -34 -10 -67 -96 -67 -1 -3 -21 -33 -2 0 -5 -48 -72 -112 -43 -49 -39 0
0 0 0 0 0 0 0 0 0 0 -1 0 0 0 -2 -3 -8 -5 -2 0 0 0 0 -81 -33 -46 -7 -14 -23 -80 -1 -5 -6 -15 -6 -8 -1 -42 -82 -100 -44 -27 -33
-6 0 0 0 0 0 0 0 0 -1 0 0 -1 -1 -8 -23 -24 -34 -27 -2 -3 -14 -42 -29 -55 -15 -18 -18 -2 -9 -12 -1 0 -4 -21 -21 -21 -30 -51 -101 -76 -6 -19
0 0 0 0 0 0 -6 -4 -2 0 0 0 -2 -4 -10 -15 -11 -122 -211 -190 -71 -20 -5 -20 -29 -21 -20 -22 -10 0 -1 -3 -4 0 -7 -15 -18 0 -24 -79 -112 -150 -4
0 0 0 0 0 0 0 -6 -4 0 -1 -4 -1 -4 -14 -170 -147 -32 -38 -67 -57 -39 -21 -2 -6 -16 -11 -25 -44 -4 0 0 0 -2 -7 -19 -36 -1 -6 -5 -13 -59 -77
0 0 -2 -1 0 0 0 0 -1 -3 -1 0 -225 -96 -1 -3 0 0 -30 0 -13 -44 -16 -1 -8 -45 -18 -35 -22 -42 -12 -21 -4 -1 -2 -6 -17 -3 -12 -2 -4 -112 -37
0 0 0 -3 0 0 0 -1 -1 -1 -1 0 -2 0 -2 -2 0 -4 -1 -3 -9 -27 0 -192 -48 -112 -58 -18 -31 -53 -12 -3 -1 -1 -14 -33 -14 -24 -4 -1 -4 -67 -69
0 0 0 -5 -1 0 0 0 0 0 0 0 0 0 -3 -1 -1 -8 -1 -2 -15 -17 -21 -29 -35 -10 -18 -21 -23 -32 -12 -4 -6 -12 -13 -86 -35 -15 -7 0 -8 -35 -76
0 0 0 -2 0 0 -5 0 0 0 0 0 0 0 0 0 -1 -1 -1 -2 -18 -12 -6 -48 -36 -1 -3 -3 -1 -2 -1 -2 -4 -5 -5 -7 -24 -14 -17 0 -5 -24 -39
-2 0 -1 0 -1 -1 -1 0 0 0 0 0 0 0 0 0 0 0 -1 0 -2 -2 -17 -18 -32 -28 -57 -108 -126 -130 -47 -3 -1 -2 -9 -16 -19 -19 -21 -11 -15 -26 -46
-13 0 0 0 0 -1 -1 0 0 0 0 0 0 -1 -2 0 0 0 -2 0 -3 0 0 -6 -61 -50 -66 -82 -115 -87 -70 -29 -35 -3 -9 -16 -22 -23 -2 -47 -24 -26 -31
Wind_Speed
13 11 8 6 4 4 5 6 8 9 9 9 10 10 12 12 13 14 14 16 16 18 18 18 19 24 24 23 27 26 24 32 35 40 48 nan nan nan nan nan nan nan nan
13 9 9 7 6 3 2 2 1 1 1 5 9 11 12 13 13 14 16 17 16 17 20 24 23 25 28 28 30 38 39 38 41 45 nan nan nan nan nan nan nan nan nan
20 18 19 18 19 17 15 16 13 9 6 4 6 10 12 11 13 14 16 16 18 19 21 24 24 27 32 34 33 37 29 39 49 45 nan nan nan nan nan nan nan nan nan
25 25 25 27 23 24 20 22 22 18 15 12 10 11 13 13 12 14 16 18 19 20 20 22 25 24 27 34 31 42 41 42 41 45 nan nan nan nan nan nan nan nan nan
34 32 33 30 28 26 24 25 25 27 24 25 24 21 18 20 22 19 17 17 20 22 25 25 24 23 25 37 41 39 37 42 39 41 43 nan nan nan nan nan nan nan nan
40 38 37 35 38 38 30 28 32 35 34 31 28 30 31 30 31 32 28 24 21 22 20 23 25 34 33 42 47 47 43 39 39 37 42 nan nan nan nan nan nan nan nan
47 54 47 52 44 55 18 34 36 35 30 34 36 37 36 36 38 41 38 31 28 25 25 26 25 29 37 38 42 38 43 44 40 36 37 37 nan nan nan nan nan nan nan
51 53 46 55 nan 41 27 29 37 36 37 40 43 43 43 39 40 45 45 41 38 32 29 28 30 31 38 41 40 40 38 41 37 35 36 37 41 37 nan nan nan nan nan
nan nan nan nan nan 42 32 40 43 40 41 43 42 47 47 47 49 46 49 48 42 41 38 37 37 34 41 45 44 43 37 39 43 40 nan nan nan nan nan nan nan nan nan
nan nan nan nan nan nan nan 46 46 46 44 46 47 50 49 50 48 53 57 52 49 50 45 42 46 47 41 51 46 43 41 37 44 40 35 33 nan nan nan nan nan nan nan
nan nan nan nan nan nan 50 53 53 52 nan nan nan nan 51 52 50 49 56 56 54 53 54 53 50 53 47 44 47 43 42 40 43 42 34 33 nan nan nan nan nan nan nan
nan nan nan nan nan nan nan nan nan nan nan nan nan nan nan 55 54 52 50 57 57 59 56 54 56 54 43 40 41 45 44 38 41 42 35 30 nan nan nan nan nan 18 17
nan nan nan nan nan nan nan nan nan nan nan nan nan nan nan nan nan nan nan nan nan 64 60 62 59 51 49 48 43 39 41 42 41 38 34 28 nan nan nan nan nan 17 nan
nan nan nan nan nan nan nan nan nan nan nan nan nan nan nan nan nan nan nan nan 61 59 56 54 52 53 nan 51 49 46 41 39 36 35 34 29 nan nan nan nan nan nan nan
nan nan nan nan nan nan nan nan nan nan nan nan nan nan nan nan nan nan nan nan nan nan nan nan 54 52 50 nan 49 43 39 37 36 34 36 34 nan nan nan nan nan nan nan
nan nan nan nan nan nan nan nan nan nan nan nan nan nan nan nan nan nan nan nan nan nan nan nan 50 52 51 49 47 45 40 35 34 34 36 37 34 29 nan nan nan nan nan
nan nan nan nan nan nan nan nan nan nan nan nan nan nan nan nan nan nan nan nan nan nan nan nan nan nan 45 47 48 46 42 37 34 34 34 36 38 32 nan nan nan nan nan
nan nan nan nan nan nan nan nan nan nan nan nan nan nan nan nan nan nan nan nan nan nan nan nan nan 34 36 41 45 46 46 44 38 35 32 33 35 39 36 nan nan nan nan
nan nan nan nan nan nan nan nan nan nan nan nan nan nan nan nan nan nan nan nan 39 40 42 46 40 34 31 31 40 44 43 45 42 40 35 32 36 38 25 nan nan nan nan
nan nan nan nan nan nan nan nan nan nan nan nan nan nan nan nan 40 37 41 nan nan 33 38 40 43 41 37 35 34 34 38 43 43 40 36 31 29 39 35 32 31 nan nan
nan nan nan nan nan nan nan nan nan nan nan nan nan nan nan nan nan nan nan 29 35 37 39 31 41 47 42 39 39 36 38 35 43 44 38 46 43 41 35 36 35 nan nan
nan nan nan nan nan nan nan nan nan nan nan nan nan nan nan nan nan 32 28 26 28 34 32 nan 31 36 41 47 45 45 39 39 40 46 52 40 37 40 38 30 34 nan nan
nan nan nan nan nan nan nan nan nan nan nan nan nan nan nan nan nan 29 27 25 26 22 28 29 32 30 45 28 39 42 42 44 46 44 44 43 45 37 28 29 32 38 nan
nan nan nan nan nan nan nan nan nan nan nan nan nan nan nan nan nan nan 23 20 20 25 33 30 34 36 34 29 31 33 36 43 51 51 45 54 22 27 34 32 35 34 37
nan nan nan nan nan nan nan nan nan nan nan nan nan nan nan nan nan nan 20 20 21 22 27 28 nan nan nan nan nan nan 23 31 37 40 51 48 42 34 35 35 34 37 39
nan nan nan nan nan nan nan nan nan nan nan nan nan nan nan nan nan nan nan nan nan nan nan nan nan nan nan 39 33 30 27 21 23 20 33 42 39 42 34 33 32 37 38
Wind_Direction
351 352 8 14 34 52 92 110 103 90 75 58 45 30 19 20 10 0 358 356 354 349 341 342 345 333 330 331 309 303 328 340 341 339 335 nan nan nan nan nan nan nan nan
302 290 303 296 289 278 272 229 204 84 33 9 5 11 13 13 11 2 353 350 343 336 335 340 343 331 332 329 318 327 333 337 342 344 nan nan nan nan nan nan nan nan nan
268 263 243 255 245 240 236 233 235 235 248 267 313 332 346 359 2 358 349 344 338 340 336 331 330 330 325 318 320 314 312 337 336 343 nan nan nan nan nan nan nan nan nan
275 266 257 249 243 241 241 240 244 243 254 267 276 297 310 319 325 343 335 330 326 323 325 332 328 327 324 320 314 318 331 331 338 339 nan nan nan nan nan nan nan nan nan
264 257 254 248 240 235 228 240 253 258 256 255 261 257 262 297 285 276 295 308 311 312 317 317 320 330 329 323 318 326 323 330 336 334 338 nan nan nan nan nan nan nan nan
265 262 257 259 255 236 228 242 242 255 259 269 268 284 287 289 288 280 273 281 288 288 291 296 303 307 317 312 313 320 323 326 332 329 333 nan nan nan nan nan nan nan nan
260 259 246 239 233 250 234 240 250 264 280 284 283 283 287 292 291 286 286 287 287 292 290 296 302 294 307 306 306 314 315 314 317 319 328 336 nan nan nan nan nan nan nan
282 287 296 294 nan 284 262 269 271 277 281 289 291 288 285 287 288 291 290 291 292 291 290 288 296 299 306 304 303 305 312 313 314 321 326 326 330 332 nan nan nan nan nan
nan nan nan nan nan 292 288 273 276 278 279 278 288 282 289 289 291 291 291 290 287 288 287 288 286 291 300 305 302 300 301 303 297 304 nan nan nan nan nan nan nan nan nan
nan nan nan nan nan nan nan 275 276 278 279 284 284 282 279 282 284 288 292 286 286 286 286 286 281 274 289 302 300 299 302 297 297 297 301 306 nan nan nan nan nan nan nan
nan nan nan nan nan nan 276 277 275 276 nan nan nan nan 278 280 282 284 288 285 285 285 283 282 281 270 274 294 296 294 297 292 295 294 299 303 nan nan nan nan nan nan nan
nan nan nan nan nan nan nan nan nan nan nan nan nan nan nan 284 288 288 291 295 286 283 281 279 278 270 268 279 286 287 274 281 283 286 289 299 nan nan nan nan nan 351 349
nan nan nan nan nan nan nan nan nan nan nan nan nan nan nan nan nan nan nan nan nan 281 279 277 275 272 270 275 281 272 277 272 279 279 280 288 nan nan nan nan nan 333 nan
nan nan nan nan nan nan nan nan nan nan nan nan nan nan nan nan nan nan nan nan 278 280 278 275 277 273 nan 266 269 272 272 270 269 269 271 276 nan nan nan nan nan nan nan
nan nan nan nan nan nan nan nan nan nan nan nan nan nan nan nan nan nan nan nan nan nan nan nan 270 264 263 nan 265 266 267 268 266 256 255 266 nan nan nan nan nan nan nan
nan nan nan nan nan nan nan nan nan nan nan nan nan nan nan nan nan nan nan nan nan nan nan nan 267 267 261 257 258 259 259 267 263 254 250 252 272 271 nan nan nan nan nan
nan nan nan nan nan nan nan nan nan nan nan nan nan nan nan nan nan nan nan nan nan nan nan nan nan nan 255 255 253 251 254 257 261 258 248 245 261 266 nan nan nan nan nan
nan nan nan nan nan nan nan nan nan nan nan nan nan nan nan nan nan nan nan nan nan nan nan nan nan 263 252 248 246 248 247 250 252 258 258 248 254 270 264 nan nan nan nan
nan nan nan nan nan nan nan nan nan nan nan nan nan nan nan nan nan nan nan nan 289 274 258 260 258 257 257 250 249 242 242 245 247 250 252 251 249 253 248 nan nan nan nan
nan nan nan nan nan nan nan nan nan nan nan nan nan nan nan nan 293 298 302 nan nan 273 251 239 235 243 251 249 249 253 245 239 237 240 241 243 229 255 261 262 257 nan nan
nan nan nan nan nan nan nan nan nan nan nan nan nan nan nan nan nan nan nan 297 287 273 254 224 231 231 234 247 245 251 254 247 234 229 228 230 236 241 248 246 244 nan nan
nan nan nan nan nan nan nan nan nan nan nan nan nan nan nan nan nan 302 302 291 280 279 272 nan 239 248 238 234 239 235 235 241 240 236 231 241 249 227 229 229 236 nan nan
nan nan nan nan nan nan nan nan nan nan nan nan nan nan nan nan nan 301 300 282 280 262 257 251 245 247 240 241 233 232 231 234 236 234 230 229 250 241 235 237 240 237 nan
nan nan nan nan nan nan nan nan nan nan nan nan nan nan nan nan nan nan 298 277 277 268 263 257 249 226 230 228 234 236 234 234 234 231 221 227 220 236 239 237 237 239 237
nan nan nan nan nan nan nan nan nan nan nan nan nan nan nan nan nan nan 296 280 270 266 262 260 nan nan nan nan nan nan 226 235 243 232 223 230 240 236 239 235 235 234 240
nan nan nan nan nan nan nan nan nan nan nan nan nan nan nan nan nan nan nan nan nan nan nan nan nan nan nan 225 232 232 232 229 224 221 228 224 229 237 231 238 243 234 240